Wind_Speed
3 2 4 5 6 9 11 12 15 14 12 11 9 8 7 7 6 3 4 3 3 4 5 7 14 14 8 7 4 2 3 0 3 3 2 7 12 10 12 13 15 13 14 15 16
5 3 2 3 7 10 10 13 16 17 17 15 14 11 11 10 9 6 5 4 4 5 6 9 15 10 11 6 7 5 5 12 8 3 5 5 6 10 12 10 8 8 10 13 15
6 6 3 2 1 2 3 5 10 17 22 21 19 18 17 17 14 10 9 8 7 8 9 10 11 12 10 5 7 13 8 4 3 6 9 11 11 12 11 8 7 6 14 14 20
6 7 6 2 2 3 4 6 7 9 15 20 21 19 15 14 13 10 11 10 11 14 16 18 17 12 6 8 8 10 5 2 4 6 10 13 10 12 9 9 7 8 13 21 24
5 6 9 5 3 4 4 4 5 6 3 11 14 13 10 8 10 7 11 13 16 20 22 23 18 13 9 10 17 14 5 4 2 4 3 8 8 9 14 17 18 18 20 26 24
5 6 8 8 5 4 4 4 3 3 4 7 9 10 9 6 6 9 9 14 21 25 26 22 16 14 13 15 16 15 13 6 3 1 3 1 3 8 14 15 18 20 21 26 26
5 6 7 9 6 5 6 4 1 3 4 8 9 9 9 8 9 8 10 14 24 25 23 18 17 17 17 11 11 9 5 8 7 6 1 5 9 10 11 11 14 16 20 26 27
5 6 6 7 9 6 6 5 0 2 2 5 7 9 8 9 9 8 7 14 19 20 17 20 21 19 18 19 12 8 9 9 9 5 5 8 11 8 8 16 22 23 28 31 35
6 7 7 7 9 9 5 6 2 3 2 2 4 7 9 10 10 7 8 12 17 19 17 18 20 18 11 16 18 11 11 9 11 10 7 10 14 13 12 16 20 26 30 32 38
9 8 8 6 8 10 6 5 3 1 4 3 1 4 5 4 8 9 9 11 14 17 14 17 18 13 16 18 12 13 15 13 15 14 15 16 16 17 17 18 26 29 34 35 39
13 10 9 7 7 10 7 4 4 2 1 2 2 1 4 5 5 9 11 12 13 18 18 18 20 20 20 19 19 21 21 21 22 23 24 17 17 17 19 23 26 30 32 35 37
12 11 10 8 7 9 9 5 5 2 2 2 4 5 4 3 5 7 9 12 11 11 21 22 24 21 18 19 20 21 24 25 25 29 22 22 23 25 24 24 29 31 34 34 36
14 12 10 9 8 8 8 4 3 2 1 4 5 4 3 4 3 7 12 16 15 9 14 22 19 16 16 17 22 20 6 6 10 21 23 22 24 25 26 31 33 33 34 31 20
16 14 12 10 9 7 7 1 1 2 3 5 5 4 2 3 3 1 3 8 6 7 12 14 16 14 17 13 15 14 18 14 13 16 22 27 29 30 29 33 34 29 29 21 24
14 15 14 12 9 7 5 3 2 5 4 4 6 8 5 6 3 8 8 3 8 11 13 6 13 16 18 18 11 15 18 16 17 18 22 24 29 32 31 33 33 34 30 30 18
15 13 15 14 11 9 6 5 6 10 10 7 4 4 3 2 4 8 9 5 3 4 12 12 14 13 14 13 17 22 24 23 23 24 23 25 34 32 30 34 32 27 25 18 17
20 16 14 14 13 11 8 9 9 12 9 8 6 4 5 4 8 12 15 12 13 11 10 8 9 12 17 21 24 26 29 32 31 31 32 35 37 32 29 30 30 31 21 14 16
26 22 18 15 15 14 11 13 14 13 10 9 4 7 10 11 11 13 15 16 14 15 14 12 11 17 21 23 28 33 34 35 41 41 40 40 34 29 25 22 23 25 7 15 23
26 23 22 19 18 16 13 14 19 17 14 14 12 11 12 16 18 19 16 14 16 15 18 19 17 19 26 32 27 29 28 31 34 35 37 34 26 25 20 27 32 28 18 17 17
24 24 23 21 20 18 15 19 23 21 20 18 17 17 19 20 19 19 19 20 21 21 20 23 25 25 24 26 29 29 29 26 28 34 33 28 26 24 22 23 17 20 20 13 15
24 22 23 23 22 20 18 24 25 23 22 21 19 20 21 21 22 24 22 22 24 24 25 27 29 30 27 28 29 32 30 28 29 26 27 24 15 19 19 16 13 15 16 16 17
23 22 21 22 22 22 22 24 22 24 23 21 18 16 17 15 19 22 23 24 25 26 28 31 31 30 28 29 26 28 28 27 18 16 23 21 11 15 13 12 17 18 17 17 17
20 20 20 21 23 23 20 20 25 23 23 22 18 18 17 15 16 16 18 21 25 28 29 29 31 30 27 27 27 25 27 27 21 27 27 27 15 15 14 14 17 20 17 17 16
19 17 19 20 19 18 20 22 23 23 24 22 18 20 17 15 17 21 23 27 28 30 33 34 30 27 31 29 27 30 29 27 28 21 17 16 15 15 16 16 20 21 18 20 20
21 19 21 20 18 18 22 21 24 25 23 22 19 17 15 18 22 24 25 27 30 31 32 32 31 30 28 30 29 29 22 22 21 20 26 14 15 15 19 18 19 19 19 23 23
23 21 22 19 19 19 20 22 25 25 21 22 19 19 18 20 24 25 24 30 28 30 32 31 28 19 16 24 25 21 25 23 25 16 20 19 22 28 24 22 23 24 24 25 26
23 22 22 20 16 18 22 20 19 19 21 19 17 18 18 21 23 24 22 25 26 24 28 25 21 24 23 21 14 18 22 18 23 22 28 27 24 24 26 24 23 25 26 26 27
Wind_Direction
35 309 286 266 236 218 222 219 214 214 219 228 232 245 265 282 298 327 334 311 253 207 228 197 187 191 186 175 201 5 346 281 304 303 353 51 47 43 20 2 351 357 346 346 343
37 29 347 269 253 253 244 229 228 237 239 239 246 252 259 265 279 281 282 285 243 195 206 201 206 214 203 183 188 345 262 331 285 257 17 8 45 43 45 27 351 316 338 324 323
36 25 17 10 235 218 233 252 253 249 241 244 249 256 260 263 264 262 252 255 217 189 197 201 230 228 210 214 245 275 295 360 50 357 353 354 6 12 20 10 355 274 328 319 333
32 28 15 347 270 254 257 268 275 288 239 234 241 251 249 241 243 237 233 225 204 190 186 206 228 240 230 240 272 256 287 39 48 358 358 352 352 1 334 301 310 284 335 334 334
27 23 21 12 1 265 274 291 289 292 248 207 210 220 224 231 226 220 234 215 197 195 190 215 227 241 232 246 264 254 221 169 171 292 324 333 355 322 329 341 352 353 359 353 338
17 15 17 17 17 12 317 295 317 297 224 199 206 208 210 210 201 212 238 220 201 200 206 223 230 249 251 259 254 249 248 219 251 96 335 3 305 343 333 341 344 345 341 326 334
11 12 9 14 10 1 0 342 311 336 216 208 209 211 209 196 198 210 222 222 212 214 216 229 242 243 248 254 233 215 212 252 267 289 243 217 295 319 337 338 334 339 330 329 339
337 352 3 4 5 357 360 3 127 48 90 181 196 201 193 179 187 191 204 207 209 215 218 229 240 240 241 251 231 209 211 248 260 237 251 271 277 304 325 327 346 331 324 336 339
297 318 342 354 353 355 348 2 40 144 129 139 145 146 172 180 166 183 194 213 216 198 203 224 237 250 222 232 234 223 231 246 255 259 265 262 266 285 314 331 328 326 325 336 337
277 293 312 337 342 348 341 351 3 141 148 123 84 161 179 193 190 197 208 196 223 202 201 231 243 254 234 240 248 239 256 274 260 240 264 275 298 303 307 318 314 322 326 331 324
267 275 289 308 329 336 345 343 351 3 317 122 112 145 187 197 208 222 221 224 214 210 206 222 237 239 243 250 260 256 263 271 256 246 251 274 290 304 306 309 313 310 314 317 311
261 267 271 284 298 320 344 342 344 26 38 54 67 81 90 176 191 235 227 229 217 206 216 228 235 242 255 275 270 270 259 284 238 244 260 284 291 293 297 300 297 300 306 306 310
252 259 263 267 278 301 345 345 356 26 71 74 66 44 81 108 186 256 250 246 228 217 218 226 248 247 272 271 267 272 298 310 304 256 261 274 279 292 294 292 294 302 315 311 304
246 251 255 257 268 290 336 352 103 106 136 53 66 51 41 74 122 114 237 249 224 224 254 247 247 250 265 283 308 232 320 307 291 284 273 278 288 288 295 291 292 307 313 311 309
247 247 246 248 251 258 288 238 166 163 74 107 74 47 33 39 60 23 8 18 247 228 254 260 267 261 262 268 284 288 283 283 293 280 284 292 295 298 296 299 305 317 317 297 309
242 248 245 241 235 237 243 221 173 164 201 161 149 45 47 334 268 329 327 329 327 310 294 270 250 260 274 262 285 285 298 288 286 284 276 291 303 300 293 293 299 303 317 297 296
238 240 245 238 230 226 232 221 203 201 214 221 232 269 309 310 278 315 327 316 305 290 293 263 258 268 280 293 289 292 294 291 296 300 300 302 298 313 296 302 300 300 301 284 292
238 235 236 235 226 221 221 224 220 241 248 274 287 271 289 303 308 313 312 311 302 293 300 286 262 283 290 291 289 285 288 292 295 294 296 297 288 300 287 288 291 321 293 290 277
233 232 230 227 223 216 215 224 229 227 243 265 272 273 261 276 286 292 302 320 309 306 289 304 301 302 292 285 292 294 291 290 294 289 288 293 290 291 291 290 285 284 282 302 285
224 225 222 222 219 212 210 206 226 237 236 243 256 278 271 270 282 279 280 285 297 298 292 292 291 294 300 290 297 299 292 287 289 282 283 281 284 292 284 300 304 269 281 293 300
217 219 220 218 214 211 207 205 223 244 249 251 253 270 264 267 276 288 294 299 304 305 303 295 292 297 298 291 287 285 286 280 287 280 284 278 309 297 272 268 289 294 292 286 297
215 221 215 216 213 211 212 220 234 242 251 259 272 269 258 277 292 299 308 312 312 310 305 302 304 304 297 286 290 296 278 286 273 281 280 283 323 296 282 295 294 294 289 283 301
213 214 212 215 214 216 219 227 233 246 253 259 270 284 287 291 293 298 300 300 302 303 302 303 300 297 289 288 287 294 288 279 267 272 280 276 298 299 294 303 288 287 290 296 303
212 212 215 218 217 221 227 227 234 246 250 258 268 274 284 300 305 307 311 311 311 308 306 303 297 291 291 294 288 292 281 272 275 280 273 271 276 294 289 283 280 287 295 299 292
210 212 216 213 215 217 229 234 240 247 255 265 273 279 295 300 303 309 315 314 313 310 307 302 302 293 289 284 284 278 260 269 277 279 241 260 265 274 288 298 301 298 292 292 286
207 213 217 212 213 221 233 239 247 257 269 273 281 290 297 301 300 311 318 319 316 317 312 301 301 309 317 303 286 259 254 255 261 267 267 253 273 271 276 286 302 299 292 290 281
204 214 217 217 215 226 234 245 255 264 270 274 283 284 296 297 306 312 314 320 326 333 326 327 310 296 302 302 273 251 257 253 270 270 275 265 268 267 279 274 293 294 296 290 281
Height
5889 5888 5888 5888 5888 5889 5889 5890 5890 5891 5891 5892 5892 5893 5893 5893 5893 5893 5892 5892 5891 5892 5892 5892 5894 5896 5897 5898 5899 5899 5901 5903 5902 5900 5899 5896 5898 5900 5899 5898 5896 5897 5896 5895 5892
5889 5888 5888 5887 5887 5887 5887 5888 5888 5888 5889 5890 5891 5892 5892 5892 5892 5892 5893 5891 5891 5891 5891 5892 5893 5895 5898 5899 5900 5899 5900 5898 5899 5899 5897 5895 5897 5898 5899 5898 5897 5895 5894 5892 5890
5889 5888 5887 5886 5886 5885 5885 5885 5886 5886 5886 5887 5888 5889 5890 5890 5891 5891 5891 5891 5891 5890 5890 5892 5891 5893 5897 5897 5898 5897 5897 5898 5898 5898 5897 5896 5896 5895 5895 5896 5894 5893 5891 5890 5890
5890 5888 5887 5886 5885 5885 5884 5884 5883 5882 5881 5883 5885 5886 5887 5887 5890 5889 5890 5890 5890 5890 5890 5890 5892 5894 5898 5899 5899 5896 5897 5898 5897 5896 5894 5894 5894 5893 5892 5892 5894 5892 5891 5889 5887
5890 5889 5887 5886 5884 5884 5883 5882 5881 5880 5879 5880 5882 5883 5884 5885 5886 5888 5889 5889 5889 5889 5889 5889 5892 5895 5897 5897 5896 5895 5896 5896 5895 5895 5893 5892 5892 5888 5890 5891 5891 5890 5890 5887 5883
5890 5889 5888 5886 5884 5883 5882 5881 5880 5879 5879 5879 5880 5881 5883 5884 5885 5887 5888 5888 5888 5887 5887 5889 5893 5895 5895 5894 5895 5896 5896 5896 5894 5894 5893 5891 5888 5889 5890 5889 5888 5888 5886 5883 5883
5890 5889 5888 5886 5884 5883 5882 5880 5879 5878 5878 5878 5879 5880 5881 5883 5883 5885 5885 5887 5887 5887 5888 5891 5892 5893 5893 5894 5894 5895 5897 5895 5893 5892 5890 5888 5887 5888 5888 5887 5886 5885 5880 5880 5879
5890 5889 5888 5886 5884 5882 5881 5880 5879 5878 5877 5877 5877 5878 5879 5880 5881 5882 5883 5884 5886 5889 5890 5890 5888 5890 5893 5893 5894 5894 5894 5893 5893 5890 5889 5888 5886 5885 5885 5884 5882 5879 5876 5874 5871
5889 5889 5888 5886 5884 5882 5881 5879 5878 5878 5878 5877 5877 5877 5878 5879 5880 5881 5882 5883 5885 5886 5887 5888 5888 5890 5889 5889 5889 5891 5892 5891 5891 5887 5887 5886 5884 5882 5881 5881 5879 5873 5872 5869 5864
5888 5887 5887 5886 5884 5882 5880 5879 5878 5878 5877 5878 5878 5880 5880 5880 5880 5881 5881 5882 5884 5885 5886 5886 5886 5886 5887 5888 5889 5889 5888 5887 5886 5886 5884 5883 5882 5880 5878 5877 5872 5871 5870 5867 5863
5886 5886 5886 5885 5884 5882 5880 5880 5880 5879 5878 5877 5878 5878 5879 5879 5880 5881 5881 5882 5881 5883 5883 5884 5885 5884 5885 5886 5886 5886 5886 5885 5883 5881 5879 5879 5878 5877 5876 5874 5872 5870 5866 5864 5859
5883 5884 5884 5884 5883 5881 5881 5880 5879 5879 5878 5877 5877 5877 5877 5878 5879 5880 5881 5882 5881 5881 5881 5882 5881 5883 5884 5884 5883 5882 5880 5880 5879 5876 5876 5875 5874 5873 5872 5869 5867 5866 5865 5861 5857
5881 5881 5882 5882 5882 5881 5881 5880 5879 5878 5878 5878 5877 5877 5878 5879 5879 5880 5881 5881 5880 5879 5880 5880 5881 5881 5882 5882 5881 5879 5877 5876 5876 5873 5872 5870 5869 5868 5866 5863 5862 5860 5859 5855 5851
5877 5878 5879 5880 5881 5881 5881 5880 5879 5879 5879 5879 5878 5878 5879 5878 5880 5880 5880 5881 5879 5878 5878 5880 5879 5880 5879 5879 5877 5876 5875 5873 5872 5870 5868 5867 5864 5864 5863 5858 5856 5856 5854 5851 5847
5874 5875 5876 5877 5879 5879 5880 5879 5878 5879 5880 5880 5878 5878 5877 5878 5878 5878 5878 5877 5876 5876 5876 5878 5876 5876 5875 5875 5874 5872 5871 5870 5870 5867 5865 5865 5862 5861 5859 5854 5852 5851 5849 5846 5843
5870 5872 5873 5875 5876 5877 5877 5877 5878 5879 5878 5878 5877 5876 5877 5877 5877 5877 5876 5876 5875 5875 5875 5875 5873 5872 5873 5872 5871 5869 5868 5866 5865 5863 5860 5859 5858 5855 5854 5850 5850 5848 5845 5842 5838
5866 5868 5870 5872 5874 5875 5875 5876 5876 5875 5877 5877 5876 5875 5875 5875 5875 5874 5875 5874 5873 5871 5871 5871 5871 5869 5868 5868 5867 5865 5863 5860 5858 5856 5854 5853 5849 5850 5846 5844 5845 5843 5840 5839 5834
5861 5863 5866 5869 5870 5872 5873 5874 5872 5872 5872 5872 5871 5872 5872 5872 5872 5872 5871 5870 5869 5868 5866 5867 5867 5865 5864 5863 5861 5860 5858 5857 5850 5848 5848 5847 5843 5845 5839 5840 5840 5837 5835 5833 5830
5854 5858 5862 5864 5867 5869 5870 5870 5868 5869 5870 5870 5869 5869 5869 5869 5870 5868 5869 5868 5867 5864 5864 5862 5862 5861 5858 5855 5855 5853 5851 5849 5845 5841 5839 5840 5839 5837 5833 5833 5833 5835 5833 5828 5826
5849 5853 5856 5859 5862 5865 5867 5867 5865 5865 5867 5867 5866 5866 5866 5866 5866 5866 5865 5865 5863 5862 5861 5859 5857 5856 5853 5851 5849 5846 5844 5841 5839 5833 5831 5831 5832 5831 5829 5829 5823 5829 5827 5825 5823
5844 5847 5851 5854 5857 5860 5862 5862 5860 5862 5863 5864 5866 5865 5863 5863 5862 5860 5861 5860 5858 5856 5855 5853 5852 5850 5847 5844 5841 5839 5836 5834 5830 5828 5825 5825 5829 5824 5822 5824 5824 5822 5821 5820 5818
5839 5844 5846 5850 5854 5855 5856 5856 5859 5858 5858 5859 5860 5861 5860 5860 5858 5856 5856 5855 5852 5850 5847 5843 5841 5839 5839 5837 5834 5831 5829 5827 5824 5823 5821 5820 5823 5820 5820 5819 5818 5817 5817 5816 5814
5836 5839 5843 5845 5848 5851 5855 5855 5854 5854 5855 5855 5857 5856 5857 5856 5856 5853 5851 5850 5847 5843 5839 5837 5833 5830 5828 5829 5826 5824 5822 5821 5818 5818 5817 5815 5819 5816 5816 5814 5813 5813 5812 5811 5808
5834 5837 5838 5841 5845 5849 5851 5851 5851 5851 5851 5852 5853 5854 5854 5852 5851 5848 5846 5843 5840 5836 5831 5826 5824 5822 5818 5817 5817 5816 5815 5815 5813 5813 5811 5813 5814 5814 5812 5811 5809 5808 5807 5804 5803
5831 5834 5835 5839 5842 5846 5845 5848 5848 5847 5849 5850 5852 5852 5851 5850 5847 5845 5842 5838 5833 5829 5824 5819 5816 5813 5811 5808 5808 5807 5808 5807 5806 5805 5806 5811 5810 5810 5809 5806 5803 5802 5801 5799 5796
5828 5829 5832 5835 5838 5841 5842 5843 5844 5844 5847 5847 5849 5849 5848 5846 5843 5841 5837 5832 5828 5824 5818 5812 5809 5807 5804 5800 5798 5799 5800 5800 5800 5801 5805 5804 5804 5803 5803 5799 5797 5796 5795 5792 5789
5823 5826 5829 5832 5835 5836 5838 5840 5842 5842 5844 5845 5846 5844 5843 5840 5838 5836 5833 5829 5824 5819 5812 5806 5803 5801 5799 5795 5792 5792 5793 5795 5795 5798 5799 5799 5797 5796 5796 5794 5793 5791 5788 5786 5783